QPF
0.00 0.00 0.00 0.00 0.00 0.00 0.00 0.00 0.00 0.00 0.00 0.00 0.00 0.00 0.00 0.00 0.00 0.01 0.01 0.01 0.02 0.03 0.05 0.06 0.09 0.15 0.21 0.28 0.33 0.39 0.50 0.55 0.56 0.62 0.66 0.69 0.63 0.61 0.59 0.52 0.45 0.36 0.26 0.20
0.00 0.00 0.00 0.00 0.00 0.00 0.00 0.00 0.00 0.00 0.00 0.00 0.00 0.00 0.00 0.01 0.01 0.01 0.02 0.03 0.04 0.05 0.07 0.07 0.09 0.12 0.15 0.16 0.21 0.32 0.42 0.50 0.51 0.54 0.53 0.54 0.53 0.46 0.37 0.33 0.30 0.24 0.17 0.13
0.00 0.00 0.00 0.00 0.00 0.00 0.00 0.00 0.00 0.00 0.00 0.00 0.00 0.00 0.01 0.01 0.01 0.02 0.02 0.04 0.06 0.08 0.09 0.10 0.10 0.11 0.12 0.13 0.16 0.19 0.23 0.29 0.30 0.31 0.32 0.30 0.32 0.31 0.30 0.25 0.20 0.16 0.12 0.10
0.00 0.00 0.00 0.00 0.00 0.00 0.00 0.00 0.00 0.00 0.00 0.00 0.00 0.00 0.01 0.01 0.01 0.02 0.03 0.05 0.07 0.09 0.10 0.09 0.09 0.09 0.09 0.09 0.08 0.09 0.09 0.10 0.11 0.13 0.17 0.18 0.19 0.21 0.20 0.18 0.14 0.12 0.11 0.09
0.00 0.00 0.00 0.00 0.00 0.00 0.00 0.00 0.00 0.00 0.00 0.00 0.00 0.00 0.01 0.01 0.01 0.02 0.03 0.06 0.09 0.09 0.08 0.08 0.07 0.07 0.06 0.07 0.06 0.06 0.07 0.07 0.09 0.10 0.12 0.15 0.17 0.16 0.15 0.14 0.13 0.13 0.12 0.11
0.00 0.00 0.00 0.00 0.00 0.00 0.00 0.00 0.00 0.00 0.00 0.00 0.00 0.00 0.01 0.01 0.01 0.02 0.04 0.06 0.09 0.08 0.07 0.08 0.06 0.06 0.05 0.05 0.06 0.07 0.07 0.07 0.07 0.09 0.10 0.11 0.13 0.13 0.11 0.11 0.12 0.13 0.14 0.13
0.00 0.00 0.00 0.00 0.00 0.00 0.00 0.00 0.00 0.00 0.00 0.00 0.00 0.01 0.01 0.01 0.01 0.01 0.03 0.04 0.04 0.04 0.05 0.06 0.06 0.04 0.04 0.03 0.04 0.04 0.04 0.05 0.05 0.05 0.05 0.05 0.06 0.07 0.08 0.09 0.08 0.09 0.09 0.09
0.00 0.00 0.01 0.00 0.00 0.00 0.01 0.01 0.01 0.00 0.00 0.00 0.01 0.01 0.01 0.01 0.01 0.01 0.02 0.02 0.02 0.02 0.02 0.02 0.03 0.02 0.02 0.02 0.02 0.01 0.01 0.02 0.02 0.02 0.02 0.02 0.03 0.03 0.03 0.04 0.04 0.04 0.04 0.05
0.00 0.00 0.00 0.00 0.00 0.01 0.01 0.01 0.01 0.01 0.01 0.01 0.01 0.01 0.02 0.02 0.02 0.02 0.02 0.01 0.01 0.01 0.01 0.01 0.01 0.01 0.01 0.00 0.00 0.00 0.00 0.00 0.00 0.00 0.00 0.01 0.01 0.01 0.01 0.01 0.01 0.01 0.01 0.02
0.00 0.00 0.00 0.00 0.01 0.01 0.01 0.01 0.01 0.01 0.01 0.01 0.01 0.02 0.03 0.03 0.03 0.02 0.01 0.01 0.01 0.01 0.00 0.00 0.00 0.00 0.00 0.00 0.00 0.00 0.00 0.00 0.00 0.00 0.00 0.00 0.00 0.00 0.01 0.01 0.01 0.01 0.01 0.01
0.00 0.00 0.00 0.00 0.00 0.00 0.01 0.01 0.01 0.01 0.01 0.02 0.02 0.03 0.04 0.04 0.03 0.02 0.01 0.01 0.00 0.00 0.00 0.00 0.00 0.00 0.00 0.00 0.00 0.00 0.00 0.00 0.00 0.00 0.00 0.00 0.00 0.00 0.00 0.00 0.00 0.01 0.01 0.01
0.00 0.00 0.00 0.00 0.00 0.00 0.01 0.01 0.01 0.01 0.02 0.02 0.01 0.02 0.03 0.02 0.01 0.01 0.00 0.00 0.00 0.00 0.00 0.00 0.00 0.00 0.00 0.00 0.00 0.00 0.00 0.00 0.00 0.00 0.00 0.00 0.00 0.00 0.00 0.00 0.00 0.00 0.00 0.00
0.00 0.00 0.00 0.00 0.00 0.01 0.01 0.01 0.01 0.01 0.02 0.01 0.01 0.01 0.01 0.01 0.01 0.00 0.00 0.00 0.00 0.00 0.00 0.00 0.00 0.00 0.00 0.00 0.00 0.00 0.00 0.00 0.00 0.00 0.00 0.00 0.00 0.00 0.00 0.00 0.00 0.00 0.00 0.00
0.00 0.00 0.00 0.00 0.00 0.01 0.01 0.01 0.01 0.01 0.01 0.01 0.00 0.00 0.00 0.01 0.00 0.00 0.00 0.00 0.00 0.00 0.00 0.00 0.00 0.00 0.00 0.00 0.00 0.00 0.00 0.00 0.00 0.00 0.00 0.00 0.00 0.00 0.00 0.00 0.00 0.00 0.00 0.00
0.00 0.00 0.00 0.00 0.00 0.00 0.01 0.01 0.00 0.00 0.00 0.00 0.00 0.00 0.00 0.00 0.00 0.00 0.00 0.00 0.00 0.00 0.00 0.00 0.00 0.00 0.00 0.00 0.00 0.00 0.00 0.00 0.00 0.00 0.00 0.00 0.00 0.00 0.00 0.00 0.00 0.00 0.00 0.00
0.01 0.00 0.00 0.00 0.00 0.00 0.00 0.00 0.00 0.00 0.00 0.00 0.00 0.00 0.00 0.00 0.00 0.00 0.00 0.00 0.00 0.00 0.00 0.00 0.00 0.00 0.00 0.00 0.00 0.00 0.00 0.00 0.00 0.00 0.00 0.00 0.00 0.00 0.00 0.00 0.00 0.00 0.00 0.00
0.01 0.01 0.00 0.00 0.00 0.00 0.00 0.00 0.00 0.00 0.00 0.00 0.00 0.00 0.00 0.00 0.00 0.00 0.00 0.00 0.00 0.00 0.00 0.00 0.00 0.00 0.00 0.00 0.00 0.00 0.00 0.00 0.00 0.00 0.00 0.00 0.00 0.00 0.00 0.00 0.00 0.00 0.00 0.00
0.01 0.01 0.00 0.00 0.00 0.00 0.00 0.00 0.00 0.00 0.00 0.00 0.00 0.00 0.00 0.00 0.00 0.00 0.00 0.00 0.00 0.00 0.00 0.00 0.00 0.00 0.00 0.00 0.00 0.00 0.00 0.00 0.00 0.00 0.00 0.00 0.01 0.01 0.01 0.01 0.00 0.00 0.00 0.00
0.01 0.00 0.00 0.00 0.00 0.00 0.00 0.00 0.00 0.00 0.00 0.00 0.00 0.00 0.00 0.00 0.00 0.00 0.00 0.00 0.00 0.00 0.00 0.00 0.00 0.00 0.00 0.00 0.00 0.00 0.00 0.00 0.00 0.00 0.01 0.01 0.01 0.02 0.01 0.01 0.01 0.01 0.01 0.01
0.01 0.00 0.00 0.00 0.00 0.00 0.00 0.00 0.00 0.00 0.00 0.00 0.00 0.00 0.00 0.00 0.00 0.00 0.00 0.00 0.00 0.00 0.00 0.00 0.00 0.00 0.00 0.00 0.00 0.00 0.00 0.00 0.01 0.01 0.01 0.02 0.02 0.02 0.02 0.02 0.02 0.01 0.01 0.01
0.01 0.00 0.00 0.00 0.00 0.00 0.00 0.00 0.00 0.00 0.00 0.00 0.00 0.00 0.00 0.00 0.00 0.00 0.00 0.00 0.00 0.00 0.00 0.00 0.00 0.00 0.00 0.00 0.00 0.00 0.00 0.01 0.01 0.02 0.02 0.03 0.03 0.03 0.03 0.03 0.03 0.03 0.02 0.01
0.00 0.00 0.00 0.00 0.00 0.00 0.00 0.00 0.00 0.00 0.00 0.00 0.00 0.00 0.00 0.00 0.00 0.00 0.00 0.00 0.00 0.00 0.00 0.00 0.00 0.00 0.00 0.00 0.01 0.01 0.01 0.02 0.02 0.03 0.03 0.03 0.04 0.05 0.06 0.05 0.05 0.04 0.03 0.02
0.00 0.00 0.00 0.00 0.00 0.00 0.00 0.00 0.00 0.00 0.00 0.00 0.00 0.00 0.00 0.00 0.00 0.00 0.00 0.00 0.00 0.00 0.00 0.00 0.00 0.00 0.00 0.00 0.01 0.02 0.02 0.03 0.03 0.03 0.03 0.03 0.03 0.04 0.05 0.05 0.05 0.04 0.03 0.02
0.00 0.00 0.00 0.00 0.00 0.00 0.00 0.00 0.00 0.00 0.00 0.00 0.00 0.00 0.00 0.00 0.00 0.00 0.00 0.00 0.00 0.00 0.00 0.00 0.00 0.00 0.01 0.01 0.01 0.02 0.03 0.04 0.04 0.04 0.03 0.03 0.03 0.03 0.03 0.04 0.04 0.04 0.03 0.02
0.00 0.00 0.00 0.00 0.00 0.00 0.00 0.00 0.00 0.00 0.00 0.00 0.00 0.00 0.00 0.00 0.00 0.00 0.00 0.00 0.00 0.00 0.00 0.00 0.00 0.01 0.01 0.01 0.02 0.02 0.04 0.05 0.04 0.04 0.04 0.04 0.03 0.03 0.03 0.03 0.03 0.03 0.02 0.02
0.00 0.00 0.00 0.00 0.00 0.00 0.00 0.00 0.00 0.00 0.00 0.00 0.00 0.00 0.00 0.00 0.00 0.00 0.00 0.00 0.00 0.00 0.00 0.00 0.01 0.01 0.01 0.02 0.02 0.04 0.05 0.05 0.06 0.06 0.05 0.04 0.03 0.03 0.03 0.02 0.02 0.02 0.02 0.02
MSLP
1009.64 1010.36 1010.87 1011.16 1011.27 1011.28 1011.27 1011.31 1011.44 1011.67 1011.97 1012.30 1012.59 1012.79 1012.87 1012.82 1012.66 1012.44 1012.18 1011.95 1011.75 1011.61 1011.51 1011.43 1011.35 1011.23 1011.06 1010.84 1010.58 1010.29 1010.00 1009.75 1009.53 1009.39 1009.30 1009.27 1009.29 1009.35 1009.41 1009.49 1009.56 1009.63 1009.70 1009.79
1009.87 1010.46 1010.83 1011.01 1011.06 1011.06 1011.10 1011.25 1011.54 1011.94 1012.42 1012.89 1013.29 1013.56 1013.66 1013.59 1013.39 1013.10 1012.78 1012.48 1012.23 1012.04 1011.90 1011.79 1011.66 1011.51 1011.31 1011.06 1010.77 1010.48 1010.20 1009.98 1009.81 1009.71 1009.67 1009.67 1009.70 1009.74 1009.76 1009.78 1009.78 1009.77 1009.77 1009.80
1009.90 1010.32 1010.55 1010.63 1010.64 1010.67 1010.80 1011.10 1011.55 1012.12 1012.75 1013.33 1013.80 1014.08 1014.16 1014.04 1013.76 1013.41 1013.03 1012.70 1012.44 1012.26 1012.13 1012.04 1011.93 1011.79 1011.58 1011.32 1011.03 1010.74 1010.48 1010.28 1010.15 1010.10 1010.11 1010.16 1010.21 1010.25 1010.26 1010.23 1010.16 1010.09 1010.01 1009.96
1009.79 1010.03 1010.12 1010.12 1010.13 1010.23 1010.49 1010.95 1011.58 1012.31 1013.06 1013.72 1014.20 1014.46 1014.47 1014.26 1013.90 1013.47 1013.06 1012.71 1012.47 1012.34 1012.27 1012.24 1012.19 1012.07 1011.89 1011.64 1011.34 1011.04 1010.78 1010.59 1010.49 1010.48 1010.52 1010.61 1010.69 1010.75 1010.75 1010.69 1010.59 1010.45 1010.31 1010.19
1009.67 1009.73 1009.69 1009.65 1009.69 1009.89 1010.30 1010.94 1011.74 1012.61 1013.45 1014.15 1014.61 1014.80 1014.71 1014.39 1013.93 1013.43 1012.98 1012.64 1012.44 1012.37 1012.38 1012.43 1012.44 1012.38 1012.22 1011.97 1011.66 1011.34 1011.06 1010.86 1010.75 1010.75 1010.82 1010.93 1011.04 1011.11 1011.12 1011.06 1010.93 1010.76 1010.57 1010.40
1009.67 1009.56 1009.42 1009.36 1009.46 1009.78 1010.35 1011.15 1012.10 1013.09 1014.00 1014.69 1015.11 1015.20 1014.99 1014.54 1013.98 1013.40 1012.91 1012.57 1012.41 1012.40 1012.50 1012.62 1012.70 1012.68 1012.54 1012.28 1011.95 1011.60 1011.27 1011.03 1010.90 1010.88 1010.95 1011.07 1011.19 1011.28 1011.30 1011.24 1011.11 1010.93 1010.72 1010.52
1009.87 1009.62 1009.42 1009.37 1009.54 1009.98 1010.69 1011.63 1012.70 1013.77 1014.69 1015.36 1015.69 1015.67 1015.34 1014.77 1014.10 1013.45 1012.92 1012.58 1012.44 1012.48 1012.63 1012.81 1012.93 1012.94 1012.80 1012.53 1012.17 1011.76 1011.39 1011.10 1010.92 1010.87 1010.91 1011.02 1011.15 1011.24 1011.28 1011.23 1011.11 1010.94 1010.73 1010.53
1010.27 1009.94 1009.73 1009.70 1009.95 1010.49 1011.31 1012.35 1013.49 1014.58 1015.48 1016.09 1016.33 1016.19 1015.74 1015.06 1014.30 1013.58 1013.02 1012.66 1012.53 1012.58 1012.76 1012.96 1013.09 1013.10 1012.95 1012.66 1012.26 1011.82 1011.39 1011.05 1010.83 1010.73 1010.75 1010.83 1010.95 1011.04 1011.09 1011.06 1010.96 1010.81 1010.62 1010.45
1010.84 1010.50 1010.30 1010.33 1010.64 1011.25 1012.14 1013.21 1014.35 1015.41 1016.25 1016.77 1016.91 1016.68 1016.13 1015.37 1014.54 1013.78 1013.17 1012.79 1012.64 1012.67 1012.83 1013.01 1013.13 1013.12 1012.95 1012.63 1012.21 1011.74 1011.29 1010.91 1010.65 1010.52 1010.50 1010.55 1010.65 1010.73 1010.78 1010.76 1010.68 1010.56 1010.42 1010.28
1011.48 1011.19 1011.05 1011.14 1011.51 1012.15 1013.05 1014.09 1015.18 1016.15 1016.89 1017.30 1017.35 1017.03 1016.42 1015.62 1014.76 1013.97 1013.34 1012.92 1012.73 1012.72 1012.82 1012.94 1013.01 1012.96 1012.76 1012.43 1012.00 1011.52 1011.06 1010.68 1010.40 1010.25 1010.20 1010.22 1010.29 1010.36 1010.39 1010.38 1010.33 1010.24 1010.14 1010.05
1012.08 1011.90 1011.87 1012.03 1012.44 1013.08 1013.92 1014.88 1015.84 1016.68 1017.29 1017.59 1017.55 1017.18 1016.54 1015.74 1014.90 1014.11 1013.47 1013.03 1012.78 1012.69 1012.70 1012.74 1012.73 1012.62 1012.39 1012.04 1011.62 1011.16 1010.73 1010.36 1010.09 1009.92 1009.85 1009.85 1009.88 1009.92 1009.94 1009.93 1009.89 1009.83 1009.77 1009.74
1012.57 1012.55 1012.64 1012.89 1013.32 1013.93 1014.68 1015.50 1016.29 1016.96 1017.42 1017.61 1017.49 1017.10 1016.48 1015.72 1014.92 1014.17 1013.55 1013.08 1012.77 1012.59 1012.50 1012.43 1012.32 1012.14 1011.86 1011.51 1011.10 1010.68 1010.28 1009.95 1009.70 1009.53 1009.44 1009.40 1009.40 1009.40 1009.39 1009.38 1009.35 1009.32 1009.30 1009.32
1012.95 1013.11 1013.33 1013.66 1014.09 1014.64 1015.27 1015.92 1016.53 1017.01 1017.31 1017.39 1017.22 1016.83 1016.25 1015.57 1014.85 1014.17 1013.57 1013.09 1012.72 1012.46 1012.25 1012.05 1011.83 1011.57 1011.25 1010.88 1010.49 1010.10 1009.75 1009.45 1009.21 1009.04 1008.93 1008.85 1008.80 1008.76 1008.72 1008.69 1008.66 1008.66 1008.69 1008.75
1013.25 1013.58 1013.93 1014.32 1014.75 1015.22 1015.71 1016.18 1016.59 1016.88 1017.03 1017.00 1016.79 1016.42 1015.92 1015.33 1014.71 1014.11 1013.56 1013.08 1012.67 1012.31 1011.98 1011.67 1011.34 1010.99 1010.61 1010.22 1009.84 1009.47 1009.14 1008.86 1008.63 1008.44 1008.29 1008.17 1008.06 1007.97 1007.90 1007.84 1007.82 1007.84 1007.90 1008.01
1013.56 1014.03 1014.48 1014.91 1015.32 1015.70 1016.04 1016.32 1016.54 1016.65 1016.66 1016.54 1016.30 1015.96 1015.53 1015.05 1014.54 1014.03 1013.54 1013.06 1012.61 1012.18 1011.75 1011.32 1010.88 1010.45 1010.01 1009.59 1009.19 1008.82 1008.50 1008.22 1007.97 1007.74 1007.54 1007.36 1007.19 1007.04 1006.93 1006.85 1006.83 1006.87 1006.97 1007.12
1013.95 1014.52 1015.02 1015.46 1015.82 1016.09 1016.29 1016.41 1016.44 1016.40 1016.27 1016.08 1015.82 1015.51 1015.16 1014.77 1014.36 1013.94 1013.50 1013.04 1012.57 1012.08 1011.56 1011.04 1010.51 1009.99 1009.49 1009.03 1008.60 1008.22 1007.88 1007.57 1007.28 1007.00 1006.73 1006.47 1006.23 1006.03 1005.87 1005.78 1005.76 1005.82 1005.95 1006.13
1014.48 1015.07 1015.58 1015.98 1016.27 1016.44 1016.50 1016.47 1016.35 1016.16 1015.93 1015.67 1015.40 1015.11 1014.81 1014.51 1014.19 1013.84 1013.45 1013.01 1012.52 1011.99 1011.41 1010.81 1010.21 1009.63 1009.07 1008.57 1008.11 1007.70 1007.32 1006.96 1006.62 1006.27 1005.93 1005.60 1005.29 1005.03 1004.83 1004.72 1004.70 1004.77 1004.92 1005.14
1015.12 1015.67 1016.12 1016.45 1016.64 1016.71 1016.65 1016.49 1016.25 1015.96 1015.65 1015.33 1015.04 1014.76 1014.51 1014.26 1014.00 1013.70 1013.35 1012.93 1012.44 1011.88 1011.27 1010.63 1009.98 1009.35 1008.75 1008.21 1007.71 1007.27 1006.84 1006.44 1006.04 1005.63 1005.21 1004.82 1004.45 1004.14 1003.91 1003.78 1003.76 1003.84 1004.01 1004.24
1015.80 1016.24 1016.58 1016.81 1016.90 1016.86 1016.71 1016.45 1016.12 1015.76 1015.39 1015.05 1014.74 1014.47 1014.23 1014.01 1013.78 1013.52 1013.19 1012.78 1012.29 1011.72 1011.09 1010.43 1009.75 1009.10 1008.48 1007.91 1007.39 1006.91 1006.46 1006.01 1005.56 1005.10 1004.64 1004.19 1003.78 1003.44 1003.19 1003.05 1003.03 1003.12 1003.29 1003.53
1016.37 1016.67 1016.89 1016.99 1016.98 1016.86 1016.63 1016.31 1015.94 1015.54 1015.15 1014.78 1014.47 1014.20 1013.97 1013.76 1013.54 1013.28 1012.96 1012.55 1012.06 1011.49 1010.86 1010.18 1009.50 1008.83 1008.20 1007.62 1007.08 1006.58 1006.10 1005.63 1005.15 1004.67 1004.18 1003.72 1003.30 1002.95 1002.70 1002.56 1002.54 1002.62 1002.79 1003.02
1016.73 1016.88 1016.95 1016.94 1016.84 1016.65 1016.38 1016.05 1015.67 1015.27 1014.89 1014.53 1014.22 1013.96 1013.72 1013.51 1013.27 1013.00 1012.67 1012.26 1011.75 1011.17 1010.53 1009.85 1009.16 1008.49 1007.85 1007.26 1006.71 1006.20 1005.71 1005.23 1004.75 1004.27 1003.80 1003.34 1002.94 1002.61 1002.38 1002.25 1002.24 1002.32 1002.48 1002.69
1016.79 1016.78 1016.73 1016.62 1016.46 1016.24 1015.97 1015.66 1015.32 1014.96 1014.62 1014.29 1014.00 1013.74 1013.50 1013.27 1013.01 1012.72 1012.35 1011.91 1011.38 1010.78 1010.12 1009.42 1008.71 1008.02 1007.37 1006.76 1006.20 1005.68 1005.19 1004.72 1004.26 1003.81 1003.38 1002.97 1002.62 1002.33 1002.14 1002.04 1002.04 1002.12 1002.27 1002.46
1016.52 1016.40 1016.25 1016.08 1015.89 1015.67 1015.44 1015.18 1014.91 1014.63 1014.35 1014.08 1013.82 1013.58 1013.33 1013.08 1012.79 1012.45 1012.04 1011.55 1010.98 1010.33 1009.63 1008.89 1008.15 1007.42 1006.73 1006.09 1005.50 1004.97 1004.48 1004.03 1003.60 1003.20 1002.83 1002.50 1002.22 1002.00 1001.86 1001.81 1001.84 1001.93 1002.07 1002.24
1015.98 1015.78 1015.57 1015.38 1015.19 1015.02 1014.85 1014.68 1014.50 1014.31 1014.11 1013.91 1013.70 1013.47 1013.23 1012.95 1012.62 1012.23 1011.76 1011.21 1010.57 1009.86 1009.09 1008.29 1007.48 1006.68 1005.93 1005.23 1004.60 1004.04 1003.55 1003.11 1002.73 1002.39 1002.09 1001.85 1001.66 1001.53 1001.47 1001.48 1001.54 1001.65 1001.80 1001.95
1015.27 1015.03 1014.81 1014.62 1014.48 1014.37 1014.28 1014.21 1014.13 1014.05 1013.94 1013.80 1013.63 1013.43 1013.18 1012.88 1012.51 1012.06 1011.53 1010.91 1010.19 1009.40 1008.54 1007.65 1006.74 1005.86 1005.02 1004.24 1003.55 1002.95 1002.44 1002.01 1001.66 1001.39 1001.18 1001.03 1000.94 1000.91 1000.94 1001.01 1001.13 1001.27 1001.42 1001.58
1014.53 1014.28 1014.07 1013.92 1013.83 1013.80 1013.81 1013.83 1013.86 1013.86 1013.83 1013.76 1013.63 1013.44 1013.19 1012.86 1012.45 1011.95 1011.35 1010.64 1009.85 1008.96 1008.01 1007.01 1006.00 1005.02 1004.08 1003.22 1002.45 1001.79 1001.26 1000.83 1000.52 1000.30 1000.17 1000.12 1000.13 1000.20 1000.31 1000.46 1000.63 1000.81 1000.98 1001.14
Thickness
5770 5756 5747 5751 5755 5757 5755 5750 5746 5755 5767 5755 5745 5743 5748 5756 5759 5758 5758 5757 5756 5756 5757 5759 5760 5760 5758 5755 5750 5747 5742 5737 5733 5731 5728 5725 5722 5722 5720 5719 5720 5719 5718 5719
5751 5748 5763 5769 5765 5758 5752 5746 5746 5754 5762 5751 5739 5737 5743 5745 5745 5747 5746 5746 5746 5746 5747 5747 5747 5747 5745 5742 5740 5737 5733 5730 5727 5725 5724 5722 5719 5718 5715 5714 5713 5714 5714 5715
5748 5759 5774 5772 5766 5757 5754 5748 5751 5750 5751 5746 5738 5729 5732 5737 5739 5739 5739 5738 5738 5737 5735 5736 5736 5735 5734 5729 5727 5727 5725 5722 5719 5719 5717 5715 5713 5710 5707 5705 5705 5706 5708 5707
5754 5767 5770 5767 5763 5762 5750 5763 5760 5753 5738 5723 5730 5710 5722 5725 5727 5728 5728 5728 5727 5726 5726 5724 5723 5722 5720 5718 5718 5717 5714 5713 5711 5710 5707 5705 5701 5699 5697 5697 5698 5698 5699 5699
5753 5765 5764 5761 5766 5768 5760 5762 5754 5745 5733 5718 5716 5706 5709 5717 5716 5718 5719 5720 5719 5718 5716 5713 5712 5712 5710 5708 5706 5706 5705 5704 5702 5700 5698 5695 5692 5690 5689 5690 5689 5689 5689 5690
5758 5770 5769 5767 5772 5771 5765 5752 5740 5725 5715 5703 5708 5702 5701 5705 5711 5713 5714 5714 5711 5710 5708 5705 5704 5702 5700 5698 5696 5695 5693 5692 5690 5688 5687 5685 5682 5680 5679 5678 5678 5678 5679 5680
5745 5758 5767 5772 5763 5761 5753 5729 5704 5699 5689 5693 5705 5698 5698 5712 5714 5712 5708 5707 5705 5703 5699 5697 5695 5692 5690 5688 5686 5684 5681 5679 5678 5676 5675 5674 5672 5670 5669 5667 5667 5667 5667 5667
5725 5727 5754 5763 5759 5750 5744 5729 5699 5688 5683 5688 5697 5693 5701 5712 5712 5709 5705 5702 5699 5695 5692 5689 5686 5683 5681 5678 5676 5673 5670 5668 5666 5664 5662 5661 5658 5656 5656 5655 5654 5654 5654 5655
5725 5727 5755 5762 5762 5756 5739 5722 5720 5696 5690 5681 5687 5695 5702 5706 5702 5699 5697 5694 5691 5688 5685 5682 5679 5676 5673 5670 5667 5663 5659 5656 5653 5650 5648 5646 5644 5642 5641 5640 5640 5639 5639 5641
5737 5726 5742 5752 5756 5748 5740 5721 5703 5690 5678 5673 5683 5684 5681 5690 5690 5689 5687 5685 5682 5680 5678 5675 5672 5669 5666 5662 5657 5653 5648 5644 5641 5637 5634 5632 5629 5627 5626 5624 5623 5623 5623 5624
5739 5722 5725 5733 5726 5722 5726 5716 5697 5682 5680 5669 5664 5671 5687 5682 5682 5681 5679 5677 5673 5670 5668 5665 5662 5659 5655 5650 5645 5640 5636 5631 5627 5624 5620 5617 5615 5613 5610 5608 5607 5607 5606 5607
5731 5714 5706 5718 5730 5732 5724 5712 5698 5685 5676 5666 5659 5663 5684 5680 5677 5675 5672 5669 5666 5663 5659 5655 5651 5647 5641 5636 5632 5626 5622 5617 5613 5610 5606 5603 5600 5596 5593 5591 5591 5590 5589 5589
5729 5710 5694 5698 5706 5715 5711 5706 5695 5680 5667 5660 5655 5663 5678 5673 5670 5667 5663 5660 5656 5652 5648 5643 5638 5632 5627 5622 5617 5612 5607 5603 5599 5594 5590 5586 5583 5580 5578 5577 5575 5573 5572 5572
5732 5705 5695 5690 5694 5701 5699 5698 5694 5680 5664 5660 5662 5663 5667 5664 5660 5657 5654 5650 5645 5640 5635 5629 5623 5618 5613 5608 5603 5599 5594 5590 5585 5580 5576 5572 5570 5567 5566 5564 5562 5560 5559 5557
5727 5704 5703 5701 5704 5703 5696 5692 5688 5681 5674 5662 5663 5660 5660 5657 5653 5649 5645 5639 5634 5628 5623 5617 5611 5606 5601 5596 5592 5587 5582 5577 5572 5566 5561 5558 5557 5555 5553 5551 5549 5549 5547 5547
5715 5703 5700 5696 5699 5695 5687 5686 5684 5679 5674 5667 5661 5655 5660 5654 5647 5640 5634 5629 5622 5617 5613 5608 5602 5596 5591 5585 5581 5575 5569 5564 5558 5552 5549 5546 5543 5541 5539 5539 5538 5537 5537 5537
5705 5699 5688 5682 5690 5686 5673 5679 5678 5675 5671 5663 5652 5652 5653 5645 5639 5632 5627 5621 5614 5609 5604 5598 5592 5586 5580 5575 5568 5562 5557 5551 5545 5540 5536 5533 5530 5528 5528 5528 5527 5527 5527 5527
5706 5690 5677 5675 5678 5669 5674 5687 5682 5674 5669 5664 5656 5651 5645 5638 5634 5627 5620 5612 5606 5601 5596 5590 5583 5577 5571 5564 5557 5551 5545 5539 5533 5528 5524 5521 5519 5518 5518 5517 5517 5517 5518 5518
5709 5694 5676 5667 5667 5668 5677 5682 5676 5665 5658 5661 5652 5645 5639 5635 5626 5622 5618 5610 5601 5594 5587 5580 5574 5568 5561 5554 5547 5540 5534 5528 5522 5518 5514 5511 5509 5507 5507 5507 5508 5509 5509 5510
5700 5692 5676 5666 5666 5660 5670 5681 5680 5666 5650 5656 5648 5639 5632 5622 5609 5612 5612 5602 5593 5586 5579 5573 5566 5559 5551 5545 5537 5529 5523 5517 5512 5508 5505 5502 5499 5498 5497 5498 5499 5500 5500 5503
5690 5678 5669 5663 5660 5662 5677 5680 5672 5648 5644 5653 5645 5635 5626 5614 5606 5605 5599 5591 5585 5578 5572 5566 5558 5550 5543 5537 5528 5520 5514 5509 5505 5500 5496 5493 5490 5488 5489 5489 5491 5491 5493 5495
5684 5675 5666 5656 5656 5660 5682 5674 5660 5654 5655 5649 5642 5633 5623 5614 5607 5599 5592 5585 5579 5573 5567 5560 5552 5545 5538 5530 5521 5514 5508 5503 5497 5493 5488 5485 5483 5481 5484 5482 5483 5485 5487 5489
5683 5680 5672 5667 5667 5677 5677 5674 5670 5660 5651 5646 5637 5629 5618 5609 5601 5594 5586 5580 5573 5567 5561 5555 5547 5541 5534 5526 5517 5509 5504 5498 5493 5488 5484 5481 5478 5477 5476 5476 5477 5480 5482 5485
5689 5681 5675 5672 5675 5678 5677 5673 5668 5660 5651 5643 5634 5624 5615 5604 5596 5588 5581 5575 5569 5563 5558 5551 5544 5538 5532 5525 5516 5507 5501 5495 5490 5486 5482 5479 5476 5475 5473 5473 5474 5477 5480 5483
5691 5683 5676 5673 5676 5676 5674 5669 5664 5657 5649 5640 5631 5621 5611 5602 5593 5585 5578 5572 5566 5561 5555 5549 5542 5536 5530 5524 5516 5508 5501 5494 5489 5485 5481 5478 5476 5474 5473 5473 5474 5477 5480 5482
5687 5682 5676 5673 5678 5670 5668 5668 5662 5653 5645 5636 5627 5618 5608 5598 5589 5582 5575 5569 5563 5559 5554 5548 5542 5536 5530 5524 5517 5509 5502 5495 5489 5485 5482 5479 5476 5475 5475 5475 5476 5478 5480 5482